Theta_e
326 326 326 327 328 328 327 326 326 325 325 325 325 324 324 324 324 324 324 325 325 325 325 325 326 326 326 327 327 326 326 325 324 324 326 328 326 325 325 324 325 324 321 319 314 312 312 313 315 314 313 315 318 321 320 322 326 323 328 329 325 328 326 324 324 326 325 320 320 320 321 322 320 319 316 316 317 317 322 328 330 334 337 336 335 334 335 336
325 326 326 327 329 329 327 327 326 326 325 325 325 325 324 324 324 324 324 325 325 325 326 325 326 326 326 327 327 326 326 324 323 322 324 326 326 326 325 324 324 324 321 316 313 312 312 313 314 313 313 316 320 319 319 323 323 326 329 326 331 330 320 319 320 321 322 320 320 320 320 321 320 319 317 317 316 318 322 323 329 339 339 335 335 335 335 335
325 325 325 327 328 328 328 327 326 326 325 325 325 325 325 324 324 324 324 325 324 325 325 325 326 326 326 326 326 326 324 323 324 324 324 324 326 326 325 325 324 324 321 316 314 314 313 313 313 313 312 314 320 321 321 324 322 326 325 324 335 328 316 318 317 319 320 319 320 319 319 320 319 318 317 318 317 317 321 323 329 338 340 338 335 334 335 335
324 324 324 326 327 326 326 327 326 327 326 325 325 325 325 324 324 324 324 324 324 325 325 325 326 326 326 325 326 325 323 325 326 325 324 324 324 324 325 325 324 323 320 316 315 315 314 313 312 312 313 314 318 320 321 324 321 322 324 328 332 322 318 318 315 318 318 318 320 319 320 319 318 317 317 318 318 316 317 321 328 336 338 338 335 334 334 335
324 324 324 325 326 326 326 326 326 326 327 326 325 326 326 325 324 324 324 324 324 324 324 325 325 325 326 325 326 324 324 330 330 324 324 324 323 324 325 323 323 322 318 316 315 315 314 312 311 313 314 314 316 317 321 324 320 320 324 326 323 320 321 317 315 318 317 319 320 320 320 318 317 316 317 317 319 319 316 317 321 331 336 337 335 334 334 334
321 322 324 325 326 326 325 326 325 326 326 326 326 326 326 325 325 324 324 324 324 324 324 324 325 325 325 325 325 322 326 332 326 321 324 324 323 324 324 322 322 320 317 315 314 316 314 311 311 313 314 313 315 317 321 321 318 321 323 321 318 318 320 316 317 318 318 319 319 320 318 317 317 316 317 317 319 319 315 316 319 327 334 335 334 334 334 334
320 319 323 325 325 325 324 325 325 325 325 326 326 326 326 326 325 325 324 325 324 324 324 324 324 324 324 324 323 323 326 327 318 316 321 322 323 324 323 322 320 318 317 314 315 318 315 311 311 312 313 313 314 317 319 319 318 320 321 319 318 317 318 317 317 318 319 319 319 319 317 317 318 317 316 315 317 316 314 318 319 325 333 334 333 334 333 333
322 321 323 325 325 324 323 324 324 324 325 326 326 326 326 326 326 325 325 325 324 324 324 324 324 324 324 323 322 324 325 324 318 315 319 322 323 323 322 320 318 317 316 314 316 319 315 311 311 312 313 313 315 317 317 318 318 318 320 318 317 316 316 316 316 318 319 318 317 318 317 318 317 316 316 315 317 315 316 322 323 326 332 334 334 334 333 332
322 323 322 324 325 323 323 323 322 323 324 325 326 326 326 326 326 325 325 325 324 324 324 323 324 323 324 322 322 326 325 322 319 316 319 322 321 322 322 318 316 316 315 315 314 315 316 313 311 312 313 312 313 315 316 317 318 318 319 318 317 316 315 314 315 317 317 317 317 318 317 316 316 315 317 317 316 315 320 327 328 329 333 335 334 333 331 332
321 323 322 323 325 324 323 323 322 323 324 325 326 326 326 326 325 325 325 324 324 324 323 323 324 322 323 322 323 327 324 321 321 318 319 322 321 320 321 317 315 315 314 315 314 314 318 314 310 312 312 312 312 313 315 316 318 319 318 317 316 314 314 315 315 315 317 316 317 319 317 316 315 314 317 318 315 316 321 325 329 331 333 334 333 332 332 332
320 323 321 322 325 324 323 323 323 323 324 325 325 325 325 325 325 325 324 324 324 323 324 323 322 321 321 321 324 326 322 320 323 320 318 320 322 320 318 317 314 314 314 314 314 313 315 312 310 311 311 312 311 312 314 314 316 318 317 316 315 314 314 315 315 315 316 316 316 319 317 316 316 315 319 319 315 318 323 322 324 329 331 332 333 332 331 331
320 323 322 323 325 324 323 323 323 324 325 324 325 325 325 325 325 325 324 324 323 323 323 321 320 320 320 321 324 323 320 320 323 323 317 315 321 321 317 316 314 314 314 314 314 313 313 312 311 311 311 313 312 312 314 312 314 317 318 317 315 315 315 315 315 316 316 316 316 317 315 316 317 317 319 317 313 316 322 322 321 323 325 327 330 332 331 331
319 322 322 323 324 323 323 322 322 323 324 324 324 324 325 325 324 324 324 323 323 323 321 317 317 318 319 321 320 318 320 320 321 323 318 314 320 321 316 316 314 313 313 313 314 313 314 313 311 311 311 312 311 312 313 312 314 316 316 317 317 315 315 316 315 315 316 315 317 315 315 320 318 317 317 315 314 315 318 321 321 320 320 321 325 329 330 329
318 322 322 323 324 323 323 322 322 323 324 324 324 325 325 324 324 323 323 322 322 321 317 315 317 317 319 320 315 315 318 318 319 321 317 315 319 319 317 316 315 314 313 312 313 314 314 313 312 312 311 312 312 312 312 312 316 316 314 317 320 317 317 318 315 316 316 314 316 313 316 322 320 317 316 315 315 315 317 319 320 320 318 318 322 326 328 327
318 322 323 323 324 323 322 322 323 323 324 324 324 325 324 324 323 323 322 321 321 318 314 315 317 317 319 318 314 314 315 315 318 318 316 317 317 316 317 317 317 315 314 313 314 314 314 313 312 312 312 312 312 312 313 315 317 316 316 317 318 316 319 318 314 316 317 315 314 313 316 320 318 316 314 314 315 315 317 318 319 320 319 318 322 325 327 326
319 322 322 323 324 323 322 322 323 324 324 325 325 324 324 323 322 322 321 320 320 316 314 316 316 316 320 319 315 314 314 316 317 317 317 317 315 315 315 315 316 315 314 314 314 314 312 311 312 312 313 312 312 313 314 316 317 316 319 321 319 316 318 317 315 316 316 316 313 313 317 318 316 315 313 313 315 316 317 317 318 319 319 319 324 326 327 328
319 322 322 323 324 323 322 322 323 324 324 324 323 323 322 322 321 320 320 319 317 315 314 315 313 317 321 315 313 314 313 314 315 316 318 316 313 314 314 313 312 312 313 312 313 312 311 311 312 313 313 312 314 314 313 315 317 316 317 320 322 318 317 317 317 317 315 315 314 313 316 318 316 314 314 315 315 316 316 316 316 317 317 319 324 327 327 329
319 322 322 322 324 322 322 323 323 323 323 323 322 321 321 320 320 319 317 315 314 314 314 313 313 322 325 315 312 315 314 313 314 315 316 314 313 313 313 312 311 311 312 311 311 311 310 312 313 314 314 312 313 313 316 321 321 319 316 316 319 316 315 318 317 316 316 314 315 314 315 318 318 314 314 314 314 315 316 316 315 315 317 319 322 325 325 326
320 322 321 322 323 322 322 323 323 322 321 321 320 320 319 318 318 316 313 312 313 314 315 315 316 323 324 316 313 314 315 314 314 314 313 313 313 312 312 312 311 311 311 312 312 311 311 313 313 313 313 313 312 310 317 323 321 322 321 317 319 317 314 318 317 315 315 314 316 316 314 315 316 315 315 314 314 314 315 315 315 315 316 317 319 321 322 323
320 322 321 322 322 322 322 322 322 321 320 320 318 318 318 317 318 317 313 312 313 315 315 314 315 316 316 315 313 313 315 314 313 313 313 314 312 312 312 311 311 311 312 314 313 312 312 313 313 312 312 312 312 311 314 317 315 318 319 316 319 319 315 316 316 315 315 315 316 316 315 315 315 316 316 314 314 315 314 314 315 315 315 315 317 318 319 320
321 322 322 322 322 321 322 322 321 320 319 319 317 317 318 318 319 317 314 313 312 312 313 312 313 315 315 314 313 314 314 314 313 313 313 314 312 312 313 311 311 311 312 313 312 312 312 312 313 312 312 313 312 313 313 313 312 314 317 317 318 320 318 315 314 315 315 315 316 316 314 314 315 315 315 314 314 314 314 314 314 316 316 316 316 317 317 316
322 322 322 322 321 321 321 320 320 319 319 317 317 317 317 316 316 315 313 313 312 310 311 311 312 315 315 313 314 315 315 314 314 313 313 313 312 313 313 311 310 311 311 311 311 311 311 311 312 312 312 312 312 313 312 312 313 315 317 316 316 320 318 314 314 316 315 314 317 318 315 316 316 315 315 315 314 314 314 314 315 316 317 318 317 318 317 317
322 322 321 321 321 321 321 320 319 319 318 317 317 317 316 314 314 314 313 313 312 310 310 311 311 313 314 314 314 313 313 313 313 314 313 313 313 314 313 310 310 311 310 310 311 312 312 312 311 312 312 311 311 312 312 312 314 318 319 316 317 318 317 315 314 314 314 314 315 317 316 316 315 315 317 315 314 314 313 314 314 316 317 318 318 318 318 319
322 322 321 321 321 321 320 319 318 318 317 317 317 316 315 313 314 314 312 312 312 310 311 311 309 311 314 314 313 312 312 313 314 314 313 312 314 314 313 310 310 310 309 309 311 312 314 314 312 313 313 311 312 312 313 313 314 321 325 322 322 319 318 318 316 315 314 313 315 314 313 318 318 313 315 315 313 313 313 314 314 315 316 317 318 318 317 320
321 322 321 320 321 320 319 318 317 317 317 316 316 315 314 313 313 313 312 312 312 310 310 310 309 312 313 313 313 312 313 315 315 313 312 312 313 312 312 310 309 310 309 310 312 313 313 313 313 314 314 313 314 314 316 316 315 318 323 325 326 322 320 321 319 319 315 313 317 313 312 328 332 319 314 312 312 313 313 315 314 314 316 316 317 318 319 320
321 321 320 320 320 319 318 318 317 317 316 316 315 315 314 313 313 313 313 313 312 311 310 311 312 314 314 314 314 313 313 315 314 313 312 312 312 312 312 312 311 310 310 310 313 315 314 313 314 315 317 318 318 317 318 320 316 314 317 322 324 324 324 323 320 322 319 314 315 313 312 324 327 322 320 317 313 313 312 314 316 315 317 319 318 321 324 323
321 320 319 320 319 318 318 318 316 316 316 316 315 315 314 312 312 314 316 316 315 312 310 310 313 314 314 314 313 312 314 314 313 312 312 313 313 311 311 312 312 311 311 312 314 315 314 313 315 317 318 318 318 317 317 319 317 316 320 324 324 324 325 325 321 324 324 318 317 319 316 316 317 319 323 320 314 314 314 315 318 317 318 320 321 323 325 325
320 319 319 319 319 318 318 317 316 316 316 316 315 314 314 313 313 314 317 320 317 312 310 309 310 312 314 314 312 312 313 313 314 313 311 311 311 311 313 312 312 314 313 313 315 315 315 316 317 318 318 318 318 320 321 319 317 320 324 326 325 324 328 328 325 324 322 317 321 325 317 313 323 329 325 318 314 314 316 316 318 319 319 319 320 322 325 327
319 319 319 319 318 317 317 316 316 316 316 315 314 315 314 313 314 313 316 320 315 309 311 310 309 313 314 313 313 313 313 312 315 314 311 312 310 310 313 312 314 318 316 316 318 317 316 315 318 320 318 319 321 322 326 323 317 321 325 326 327 330 330 327 328 329 318 314 326 331 319 313 323 331 323 314 314 317 318 316 315 316 317 318 321 324 327 329
319 318 319 318 317 316 316 316 315 315 315 315 315 315 314 313 314 316 317 318 313 310 310 310 311 314 313 312 312 313 314 314 314 312 311 312 311 309 312 312 316 323 323 324 323 318 314 311 315 320 318 321 320 317 322 324 320 322 325 326 324 328 333 333 336 332 317 320 336 334 323 313 316 326 324 315 318 320 317 316 317 319 320 322 327 328 328 329
318 318 318 317 316 315 315 315 314 315 315 315 315 313 313 313 314 316 317 315 313 311 310 311 312 313 312 311 312 313 315 313 312 312 312 312 312 311 312 313 316 322 323 324 321 318 317 313 314 317 315 318 320 317 319 321 324 327 328 325 319 323 335 337 333 324 317 328 335 326 318 315 315 324 324 318 318 318 316 316 321 325 325 325 328 327 327 331
318 318 318 316 315 315 315 314 314 315 314 314 314 311 313 315 314 316 315 313 314 312 310 312 313 312 312 311 313 315 316 315 312 312 312 312 312 312 313 315 316 316 316 320 321 319 320 318 316 315 313 316 320 319 317 318 324 327 323 319 317 320 326 326 325 324 324 326 322 315 317 318 318 320 319 318 318 316 316 319 324 326 325 325 326 326 326 328
318 318 316 315 315 314 314 314 314 314 314 314 312 311 313 316 316 316 313 312 315 312 310 313 313 312 311 311 313 315 316 316 313 312 312 312 313 312 314 317 316 316 317 319 321 320 321 319 316 315 313 314 318 317 315 318 321 320 316 316 321 323 318 316 321 323 322 322 316 312 315 319 319 318 317 318 315 314 318 324 327 324 325 327 327 327 325 324
318 317 315 314 314 314 314 314 314 314 314 312 311 311 314 316 316 315 312 312 314 311 310 312 312 312 311 311 313 315 317 316 312 313 313 313 313 312 314 315 314 319 322 318 317 320 321 318 316 316 314 314 318 317 317 320 319 319 319 318 322 326 323 320 323 323 320 321 316 310 315 323 321 316 318 316 313 316 321 325 323 320 323 327 326 326 326 324
317 315 314 313 313 314 314 313 314 314 313 311 310 312 315 315 315 315 313 312 312 310 310 312 312 312 312 313 313 315 319 317 312 313 313 313 313 312 312 312 313 319 320 315 315 316 316 316 318 318 315 315 318 319 319 318 316 319 321 319 318 324 330 328 325 329 327 320 317 314 319 327 319 313 316 314 313 315 316 318 320 320 322 324 325 325 325 325
316 313 313 313 313 313 314 313 313 313 311 310 310 313 314 313 314 315 313 312 311 310 311 312 312 312 313 315 315 315 318 318 315 313 314 313 312 312 313 312 313 315 314 314 317 316 313 315 317 317 315 314 316 317 319 317 316 318 318 321 322 321 327 325 316 318 318 317 321 317 318 323 316 314 318 313 313 315 311 313 318 320 321 321 324 324 323 325
313 312 313 313 312 313 313 313 313 312 310 309 311 314 313 312 314 315 312 311 310 311 311 313 313 312 313 315 315 315 317 317 315 313 314 314 313 312 312 312 313 313 312 314 316 316 316 316 315 316 316 313 313 316 318 317 317 319 318 321 321 316 321 324 317 314 313 317 324 317 315 321 316 318 321 313 312 315 312 313 314 315 320 321 323 324 323 323
312 312 312 312 313 313 313 312 311 311 310 310 312 314 312 313 315 314 312 311 311 311 311 312 312 311 313 314 314 314 316 316 315 315 314 313 315 314 311 312 313 313 313 314 313 316 320 319 314 314 316 314 314 317 318 315 313 318 320 319 320 318 320 322 318 318 315 315 322 319 316 319 318 321 324 314 315 317 313 313 312 313 319 321 323 324 321 321
312 313 313 312 313 313 312 312 311 311 312 312 312 314 315 318 319 315 312 311 311 311 311 312 312 311 312 314 314 314 315 314 314 315 315 313 316 316 311 311 314 313 313 315 316 317 321 322 317 314 314 315 316 316 318 316 313 315 317 314 317 320 323 321 316 320 322 319 322 321 316 321 325 324 325 318 320 322 314 314 313 312 316 319 322 323 321 320
312 313 313 312 312 313 312 311 311 311 313 312 311 315 316 318 320 317 313 312 312 312 312 312 312 311 312 314 314 314 315 315 315 315 316 314 314 314 312 311 313 314 312 315 320 318 315 321 322 315 313 314 316 316 317 316 314 315 316 313 314 315 317 319 317 322 327 322 323 319 317 332 336 323 320 317 317 321 316 314 314 311 313 318 320 321 319 318
313 313 313 312 312 312 311 311 311 312 313 311 310 314 316 317 320 318 314 312 314 315 315 313 312 311 313 314 314 314 314 315 315 315 317 315 312 314 313 312 313 314 312 314 320 319 316 318 321 317 315 317 318 317 316 317 315 314 314 314 316 314 316 317 316 320 322 319 326 323 318 334 336 318 316 315 313 318 315 313 316 313 312 318 320 319 318 318
313 314 313 312 312 312 311 312 311 311 312 313 312 316 318 318 319 319 316 313 316 320 317 312 312 312 313 314 314 314 314 315 315 315 316 316 312 314 315 313 313 313 313 315 318 320 321 320 320 318 317 318 318 316 314 317 318 316 314 317 317 315 318 319 317 322 319 314 323 323 315 327 333 319 316 317 315 319 316 314 317 314 312 318 320 317 316 316
314 314 312 311 311 311 311 312 312 310 312 315 316 318 317 316 318 319 318 314 316 321 317 312 312 312 314 314 314 314 313 314 315 314 315 316 312 315 318 314 313 313 312 316 317 318 320 320 320 318 316 317 319 317 314 314 317 316 316 318 318 315 316 319 322 326 324 317 318 316 314 326 335 324 320 319 316 317 315 313 317 319 318 319 320 318 316 316
313 313 313 311 311 311 311 311 311 311 312 315 318 318 316 317 319 318 316 314 318 321 317 313 313 313 315 315 314 314 313 314 315 313 316 317 314 320 323 315 312 314 312 314 315 315 317 319 320 319 317 318 320 319 316 315 316 318 318 317 317 317 316 317 319 317 319 324 322 317 317 324 330 326 321 320 318 315 314 313 316 323 324 321 319 317 316 316
313 313 313 311 310 312 312 311 311 310 311 316 319 318 317 319 320 319 317 317 322 324 321 317 316 316 318 316 314 314 313 316 317 316 319 318 315 322 324 316 312 313 313 316 315 315 320 320 319 320 319 317 318 317 317 318 316 317 319 317 317 319 317 318 320 314 317 326 322 318 319 318 320 322 319 319 320 317 316 314 312 318 322 319 317 317 316 315
313 312 313 312 311 313 313 313 314 312 310 315 318 317 317 317 318 320 319 317 321 326 326 323 320 319 317 315 315 314 313 318 321 318 319 320 318 319 319 317 315 314 318 321 316 318 325 320 316 317 316 315 317 317 317 319 317 315 318 319 318 318 318 320 322 318 320 325 322 322 323 315 314 318 317 319 321 317 316 315 311 314 319 318 316 316 315 314
313 313 312 313 313 313 313 314 316 312 310 314 316 315 316 317 316 318 318 317 320 324 326 322 319 318 316 314 316 314 312 318 322 318 319 321 318 315 315 318 318 317 319 318 316 321 323 317 316 318 316 315 319 320 317 317 317 316 317 319 319 319 319 319 319 316 318 319 317 321 323 316 313 314 316 319 321 318 318 316 312 314 318 318 316 316 316 314
311 312 312 312 313 313 313 314 314 313 310 313 315 314 315 316 316 316 318 319 319 323 324 320 317 318 317 315 316 315 314 317 318 317 320 319 316 314 315 316 316 318 318 314 317 323 319 315 318 317 315 317 319 320 318 317 318 317 316 318 318 318 319 319 317 316 317 316 314 315 318 316 313 313 314 317 318 320 320 315 312 314 319 318 317 317 316 314
309 312 311 311 313 313 313 313 313 312 311 313 315 314 314 316 315 317 320 320 317 320 323 319 318 320 318 317 317 315 315 317 316 318 318 316 315 318 318 314 314 319 320 314 316 319 315 317 320 315 313 316 318 321 321 319 318 318 317 317 316 317 318 317 316 316 316 316 314 313 315 315 313 312 315 318 319 318 317 314 313 317 322 320 317 317 316 314
307 309 309 311 313 312 312 313 313 313 312 313 315 314 313 314 315 317 320 319 316 318 319 318 319 320 319 319 319 316 315 315 317 318 316 314 315 317 317 315 315 316 317 315 313 313 314 319 318 314 313 315 317 322 323 321 320 318 318 318 316 316 317 316 316 316 315 315 314 314 315 314 312 313 316 321 320 314 312 314 315 315 318 319 317 316 315 313
300 300 303 310 313 311 312 313 314 314 313 312 315 315 313 313 314 316 318 319 318 317 317 317 318 319 318 318 320 318 316 317 319 317 315 314 314 315 317 317 314 314 316 317 314 313 315 317 316 315 316 316 317 319 320 320 321 318 319 320 318 316 316 315 315 314 314 315 315 315 316 313 312 314 316 318 319 315 314 318 317 313 315 319 318 317 315 314
299 299 303 310 312 311 312 312 313 314 313 312 313 313 313 313 314 316 317 318 321 319 317 318 317 317 317 318 319 319 320 321 319 315 315 314 313 317 321 318 312 314 317 316 315 316 317 318 317 318 318 317 317 318 317 318 319 317 317 319 317 315 315 314 315 315 314 315 315 315 314 311 312 316 315 313 315 317 317 318 317 314 315 317 317 316 315 313
Wind_Speed
37 38 39 40 41 43 44 43 42 41 40 38 37 37 36 34 31 29 28 27 26 26 26 24 23 23 23 22 18 13 9 8 5 4 5 5 9 10 9 8 6 4 5 6 8 16 16 15 16 20 16 7 1 1 2 1 1 2 2 2 3 2 2 4 5 6 5 6 6 6 5 8 5 1 1 3 7 7 6 6 4 8 9 8 16 28 31 30
33 38 39 39 40 42 44 44 42 41 40 39 37 36 36 35 32 30 28 27 26 26 26 24 23 22 21 19 15 12 9 8 3 1 6 7 10 11 11 9 7 6 3 7 6 11 11 12 16 18 11 4 2 2 2 2 1 2 2 2 4 4 1 3 4 7 5 8 8 7 6 7 7 5 3 3 5 6 7 4 4 9 8 11 19 26 28 29
30 36 39 39 40 42 42 41 41 41 40 40 38 36 36 36 34 31 29 27 26 26 26 24 23 22 19 17 14 12 9 6 1 4 11 11 12 13 11 11 8 7 2 6 3 7 8 12 17 12 6 5 4 1 1 2 1 2 2 1 6 5 1 5 1 6 7 10 10 7 6 5 5 5 3 4 7 6 7 4 4 7 7 8 12 19 25 26
29 32 37 41 42 44 43 41 41 40 40 40 38 36 36 36 35 32 30 28 26 25 26 25 24 22 19 16 13 12 10 4 1 7 15 15 13 14 12 11 9 9 4 4 1 5 9 12 14 7 3 5 4 1 1 3 1 1 3 3 6 3 3 3 3 4 9 10 10 7 6 6 4 4 4 6 7 3 6 8 9 11 13 11 10 16 21 22
28 30 35 41 44 45 44 43 42 40 40 40 38 37 36 35 35 33 31 29 26 25 26 25 24 22 20 17 13 14 11 3 3 9 17 18 16 14 12 11 11 12 8 4 3 7 12 9 8 4 2 4 3 1 3 5 2 1 3 4 5 2 4 3 4 2 8 9 8 9 8 6 4 3 5 8 6 5 6 9 11 14 16 15 15 17 18 18
30 30 33 38 43 45 43 41 41 40 40 39 38 36 36 35 34 34 32 30 27 25 26 26 24 23 20 17 15 15 10 1 3 7 15 20 19 15 11 11 14 13 10 8 6 7 11 7 6 3 2 4 4 3 5 4 3 1 4 2 3 1 5 4 3 1 6 10 8 8 6 5 6 2 4 7 5 6 6 7 10 15 19 21 19 18 15 15
32 32 32 34 41 44 43 40 40 40 40 39 38 37 36 35 34 33 32 31 29 26 27 26 25 24 21 18 15 10 5 3 4 5 10 20 22 17 13 13 14 14 12 10 7 3 6 6 7 5 3 5 4 5 6 4 4 4 4 2 3 2 2 2 1 1 7 10 7 7 6 6 7 3 2 4 5 6 4 4 12 18 21 22 18 16 16 18
33 34 33 34 40 44 43 41 40 40 40 39 38 37 36 35 34 33 32 31 29 28 27 26 26 25 24 21 12 3 3 5 5 4 10 22 25 21 18 16 14 13 13 11 9 2 4 4 7 5 3 5 4 3 5 4 3 5 5 2 2 2 1 0 1 4 8 7 5 8 7 5 7 5 3 5 6 6 5 7 13 16 17 17 15 15 15 16
33 36 33 33 39 44 44 43 41 40 39 39 39 38 37 35 34 33 31 30 30 29 27 27 26 25 26 20 9 3 6 9 5 6 14 25 25 23 21 19 17 14 12 12 11 5 3 2 5 3 4 6 5 4 5 5 4 6 6 3 3 2 2 1 2 5 6 3 5 9 5 2 3 3 2 6 8 6 6 10 12 13 13 12 12 14 15 15
33 36 33 33 38 43 43 42 42 41 39 39 39 39 38 36 34 33 31 30 29 29 28 27 26 27 25 15 7 5 6 11 9 5 15 26 24 23 23 22 21 18 14 11 11 7 5 7 7 4 7 6 4 6 4 6 5 4 5 4 3 2 2 2 1 3 4 2 5 8 5 1 1 1 2 6 8 7 8 11 11 12 12 11 10 11 15 16
33 36 34 34 39 43 43 42 41 41 41 39 39 39 38 37 34 32 30 29 29 29 27 26 26 28 23 12 8 6 3 10 14 7 10 19 25 25 27 27 23 22 17 10 10 11 10 13 12 7 6 4 4 8 4 3 3 6 8 6 3 1 1 2 4 3 2 2 4 8 5 1 4 0 6 6 8 9 10 11 9 11 10 10 11 10 12 16
34 36 36 37 40 43 43 43 41 40 41 40 40 39 38 37 35 32 30 29 29 28 26 26 28 27 18 7 6 4 4 7 13 13 6 8 22 25 24 26 23 24 22 12 10 15 14 13 13 7 6 4 6 7 3 5 3 7 9 5 2 1 1 2 4 3 2 2 4 7 4 2 1 5 7 6 8 8 10 10 9 9 9 9 10 9 9 14
36 37 39 41 43 44 44 43 42 41 41 41 40 39 38 37 35 33 30 30 29 27 27 29 27 23 14 5 4 4 6 6 8 13 8 6 17 22 22 23 20 23 22 16 13 13 10 13 15 10 8 5 4 5 4 6 1 6 4 5 4 2 2 4 3 2 2 1 3 4 1 4 7 9 6 6 8 8 8 8 8 7 7 8 8 8 9 13
39 40 41 43 45 47 44 41 42 43 42 41 40 39 39 37 36 33 31 30 28 27 30 29 23 18 11 3 2 6 7 7 8 13 13 12 17 19 23 24 22 22 20 17 16 11 8 15 16 11 6 4 4 6 7 5 2 4 3 3 4 3 4 5 3 5 4 1 1 4 2 5 8 8 5 8 9 10 9 8 8 7 6 7 7 8 8 11
42 43 44 44 46 48 46 41 42 44 42 42 42 40 39 37 35 32 30 29 26 29 32 26 16 12 7 2 2 8 9 8 11 17 18 18 20 16 19 26 25 24 22 18 15 11 11 15 12 8 5 3 2 4 5 4 3 2 4 2 1 4 4 4 2 6 5 1 2 5 2 5 7 7 5 7 8 9 10 7 7 8 7 7 6 8 8 8
45 45 47 46 47 47 47 43 41 42 43 43 43 41 40 38 35 32 29 27 25 29 27 15 9 8 5 3 4 8 10 8 11 18 19 22 22 18 18 20 20 22 20 18 16 11 11 11 5 4 4 4 2 3 2 4 4 2 3 3 3 5 3 2 3 5 4 2 2 2 2 3 5 5 5 5 7 8 8 8 8 8 8 8 7 7 7 7
47 47 48 48 49 48 47 45 43 43 43 45 44 42 41 38 35 32 27 26 26 27 21 7 5 6 1 2 4 8 10 8 11 18 20 22 21 22 23 14 12 18 15 13 14 10 8 6 2 2 3 4 3 4 1 3 4 3 1 2 3 5 5 2 3 5 4 4 4 4 2 4 6 4 6 6 7 8 7 8 8 7 8 7 7 7 7 8
49 49 50 50 49 49 47 46 46 44 45 48 45 42 41 39 38 34 30 30 26 22 13 2 4 5 3 7 6 8 14 12 13 19 21 20 17 23 27 14 10 15 11 7 8 7 5 3 3 3 3 5 4 5 4 5 5 3 2 3 2 3 5 5 3 3 6 6 6 6 4 8 8 5 6 6 5 8 9 9 8 8 9 8 8 8 7 8
51 49 52 51 50 50 48 48 46 46 50 50 48 46 43 37 31 29 30 28 18 11 6 4 8 5 3 11 9 9 18 18 14 17 20 18 16 21 22 14 12 13 9 5 5 7 5 2 3 5 5 5 5 6 6 7 7 7 5 4 4 3 4 5 3 3 5 5 5 7 7 9 8 7 7 6 5 7 8 7 7 7 8 8 8 8 9 9
52 51 53 51 51 50 50 51 48 51 55 53 53 42 28 22 15 12 16 17 10 4 4 9 9 1 4 9 11 14 19 17 11 13 19 19 20 19 11 9 10 8 8 7 5 6 5 4 5 6 6 6 6 7 8 8 6 5 5 4 5 5 3 3 2 5 1 5 5 7 7 8 7 8 9 6 5 6 7 7 8 7 7 8 9 9 10 10
55 54 53 53 55 52 52 54 52 55 57 58 52 25 12 15 8 9 13 8 7 4 3 17 13 3 2 8 17 23 15 9 7 10 19 20 20 16 6 7 9 5 7 9 7 5 5 7 8 8 8 7 8 8 7 8 7 4 5 5 5 4 3 3 2 4 3 3 4 3 4 9 8 9 8 5 6 8 9 8 9 10 8 7 9 10 10 8
57 56 55 56 56 54 55 57 58 58 54 53 37 11 11 11 4 17 19 6 5 4 2 16 12 4 1 7 20 25 13 7 8 10 18 18 13 10 5 7 9 6 7 8 6 6 6 7 8 9 9 7 7 8 8 8 6 4 5 6 5 4 2 2 3 4 4 2 3 2 2 9 9 8 8 6 8 8 10 11 10 11 9 8 9 10 9 7
59 58 58 58 57 58 59 61 63 57 48 42 25 10 15 12 17 34 23 7 5 3 4 8 8 3 2 6 14 18 13 11 10 10 17 17 9 7 8 8 9 8 9 8 7 7 5 6 8 8 8 9 7 7 9 7 4 3 4 5 4 4 3 1 3 3 3 2 1 1 1 7 7 5 8 8 9 7 8 12 11 10 11 11 11 10 9 9
60 61 60 62 61 60 62 63 60 49 43 37 21 18 22 22 36 41 18 6 4 5 5 10 8 3 5 7 8 11 10 7 8 12 19 17 9 5 8 10 10 8 8 11 9 7 5 4 7 7 7 10 7 6 8 6 4 3 4 5 4 4 4 2 2 1 3 3 1 3 4 6 5 6 9 8 7 6 7 10 10 9 10 10 10 9 9 10
63 63 62 65 61 61 66 57 45 41 38 28 19 25 26 26 39 35 13 5 2 3 6 12 8 5 8 9 7 8 6 2 2 11 17 16 10 7 6 7 7 8 10 12 10 7 6 4 6 8 7 9 7 6 7 8 4 3 2 4 6 8 5 5 5 5 4 3 3 2 1 6 5 5 9 7 5 8 7 9 11 11 10 8 8 9 9 9
65 63 65 66 61 66 59 33 31 41 30 17 22 33 28 28 34 23 9 4 2 3 7 10 7 7 11 7 5 5 6 1 1 8 16 13 7 5 6 4 2 7 10 9 6 4 4 3 5 8 8 8 7 4 6 7 6 3 4 2 6 8 7 8 7 4 2 3 3 2 4 5 6 4 8 6 6 10 8 8 11 10 9 8 8 8 8 8
66 65 68 66 66 68 42 18 33 38 20 18 31 38 32 31 28 11 6 2 3 5 7 7 5 11 14 7 7 7 5 5 3 5 11 9 4 1 5 6 3 5 7 5 3 2 3 5 5 7 6 7 7 4 5 7 7 4 3 4 9 10 8 8 8 4 3 3 3 4 3 3 4 5 8 4 4 7 7 9 10 8 8 8 8 7 7 7
66 68 69 66 72 66 37 30 40 28 21 31 38 39 37 32 19 5 5 4 3 5 7 5 5 12 11 4 5 2 4 8 7 5 7 6 4 2 3 7 6 7 4 5 6 2 2 7 8 8 5 4 6 4 5 7 6 5 4 7 8 8 8 7 6 4 1 2 2 5 1 2 5 6 6 3 2 4 7 9 10 9 9 8 8 8 7 6
69 69 68 70 68 48 31 39 37 21 30 40 35 36 34 24 11 5 3 6 3 4 6 7 7 9 7 4 4 1 3 5 4 5 5 4 4 1 3 5 6 7 2 3 7 2 1 5 6 8 6 5 4 2 3 6 4 4 4 7 5 5 5 5 5 4 3 2 4 7 2 2 5 6 4 2 1 5 7 8 8 9 8 8 8 6 5 4
72 68 68 71 54 31 29 32 26 27 38 39 32 33 29 16 7 4 6 6 4 3 4 6 6 8 11 10 5 3 5 1 2 6 5 3 1 2 2 3 5 6 5 6 4 1 2 1 1 3 4 5 5 2 1 3 5 5 6 7 7 6 5 4 3 4 3 2 6 7 3 3 3 5 4 4 4 6 7 6 7 6 5 6 6 6 6 5
70 67 71 67 43 32 31 21 24 38 42 39 34 29 21 7 1 6 8 5 5 4 4 5 6 9 15 15 7 5 5 3 4 10 7 4 2 1 2 3 3 5 4 4 4 4 5 3 2 1 1 4 5 4 3 2 5 6 5 5 4 4 5 5 4 3 2 5 6 4 1 3 3 5 5 5 6 6 7 6 7 7 6 6 5 5 5 5
68 68 71 57 37 34 27 21 36 45 43 44 34 18 11 6 3 5 6 6 6 5 7 10 10 12 15 14 8 6 6 3 6 11 9 7 6 5 5 5 5 5 4 4 2 3 4 3 3 4 2 3 6 4 3 4 4 5 5 6 5 2 3 2 3 1 2 5 4 2 1 2 5 7 8 9 10 8 7 7 7 8 7 6 6 6 5 5
67 68 62 43 32 30 26 31 42 44 44 40 24 9 6 9 8 5 6 7 7 9 10 12 15 17 16 12 7 6 5 3 7 8 6 6 6 6 4 4 8 7 4 5 4 2 2 5 4 2 2 1 5 6 3 1 1 4 6 6 5 3 3 1 4 2 3 5 3 2 1 2 4 6 10 13 14 10 7 7 7 8 8 8 7 6 5 5
68 65 46 32 30 30 33 40 42 44 43 27 12 9 10 10 8 6 7 6 6 10 11 11 15 16 14 10 8 8 5 2 7 9 7 6 6 7 6 6 8 6 5 5 4 5 4 2 3 2 1 1 2 3 4 6 5 4 5 6 6 5 4 4 4 2 4 3 3 3 1 3 3 4 7 10 9 4 3 4 3 5 5 6 5 5 5 4
65 54 34 29 30 33 41 41 40 45 36 14 7 10 10 11 8 6 8 6 6 9 10 13 16 14 10 6 6 8 5 3 6 7 7 8 8 10 8 7 8 6 6 6 3 3 6 3 3 2 2 1 3 2 1 6 4 3 3 6 4 5 5 3 4 6 5 1 1 2 2 4 4 6 8 4 3 3 1 1 4 5 3 5 5 4 5 5
55 39 26 27 30 36 46 39 38 42 26 10 10 8 8 9 7 6 8 7 9 13 15 14 12 11 8 4 5 8 3 4 8 5 4 6 6 9 8 7 9 8 8 8 3 2 5 2 4 3 2 1 2 2 1 3 3 1 3 4 5 4 7 5 2 2 4 2 3 2 3 5 3 6 8 1 1 2 2 1 3 5 4 5 5 5 5 5
37 26 19 22 29 39 45 39 38 33 16 9 11 9 7 5 5 6 8 9 12 16 18 12 7 10 10 7 8 11 5 5 8 6 5 5 4 9 10 7 8 10 8 6 3 3 5 1 4 1 1 2 1 1 3 2 3 4 3 5 3 2 4 4 2 2 3 2 4 1 4 4 2 4 6 2 3 7 6 5 5 5 5 5 6 6 6 5
27 21 13 16 31 40 41 38 34 21 8 7 11 10 6 3 3 7 9 12 15 15 14 10 7 8 10 10 10 13 11 8 8 6 6 6 4 8 13 8 6 10 9 4 3 3 5 3 2 1 1 2 2 2 2 3 1 4 3 3 4 3 2 2 3 1 1 3 4 3 4 3 4 5 3 2 7 9 9 7 7 7 7 7 6 6 6 5
22 14 6 14 32 38 40 37 24 11 5 8 11 8 5 3 3 7 13 15 14 14 11 9 9 7 9 11 10 11 11 9 10 7 5 6 4 7 14 9 5 10 10 5 4 3 4 4 2 2 1 1 2 1 4 2 1 2 1 1 2 2 4 3 3 3 3 3 4 3 2 3 6 6 5 8 10 11 10 8 8 9 8 8 7 7 7 7
13 7 4 18 32 36 39 30 13 7 7 10 10 5 5 6 2 5 15 17 11 7 8 10 11 10 9 10 10 11 8 7 11 7 3 7 4 5 11 10 6 10 8 5 4 4 3 4 3 1 3 1 2 2 5 7 4 2 2 3 2 0 2 2 1 3 4 3 3 2 2 5 6 5 7 10 10 9 9 9 9 10 8 8 8 8 7 7
7 5 5 22 35 37 33 17 6 9 8 8 8 3 5 6 3 5 14 17 9 2 4 10 12 11 10 10 11 10 7 7 10 7 3 7 7 4 8 10 10 10 7 3 4 4 2 3 5 2 1 3 3 4 2 4 5 5 4 6 6 4 4 3 3 2 2 3 4 4 3 7 6 4 6 8 7 7 8 9 9 9 9 9 8 8 8 7
6 5 9 28 41 37 24 9 8 10 5 7 6 2 4 5 5 7 10 12 8 2 4 8 10 10 10 11 11 10 8 7 10 9 5 7 10 5 6 11 13 14 11 5 4 5 4 4 5 2 3 4 5 4 2 3 1 2 2 4 5 4 5 5 5 3 2 2 2 3 3 7 6 4 5 5 5 6 6 7 8 7 7 8 8 8 7 6
5 6 13 33 42 31 16 9 9 6 3 4 2 1 3 4 5 7 6 9 7 3 4 5 7 10 8 9 11 12 11 8 9 12 6 4 8 4 5 12 15 14 11 5 4 4 4 4 4 2 1 2 5 4 3 2 1 2 3 3 4 3 3 5 5 4 3 3 3 2 4 7 6 4 4 5 5 5 4 5 7 6 5 7 8 7 7 6
6 5 7 25 35 22 9 9 12 9 6 4 3 2 1 2 5 7 9 11 6 4 6 6 7 9 6 9 12 14 14 8 7 10 5 4 6 1 2 11 15 14 10 7 8 6 2 3 4 4 2 3 4 3 3 2 2 2 3 2 3 3 4 3 2 2 2 4 6 5 5 6 5 4 3 4 5 5 5 4 4 6 6 6 7 6 7 7
9 5 3 13 21 12 4 5 8 10 10 7 6 6 4 2 1 3 9 9 3 5 7 4 7 7 6 9 9 11 13 7 5 7 3 4 3 4 1 9 14 12 7 6 9 6 4 5 4 6 6 5 5 4 4 4 3 2 2 3 4 5 6 5 2 2 3 4 5 5 5 6 6 6 6 6 5 4 6 6 4 4 5 6 6 7 7 7
7 5 5 7 7 5 2 1 2 7 10 7 5 6 6 5 1 2 5 5 1 4 5 3 7 8 7 12 10 9 11 3 4 7 6 5 3 3 1 6 8 7 5 8 10 6 4 3 5 8 10 10 7 4 5 9 6 5 5 6 7 7 7 6 3 4 5 3 3 5 7 8 9 7 6 6 5 5 6 5 5 5 5 6 6 6 6 6
3 6 10 9 6 6 5 3 3 7 11 10 7 6 8 9 5 1 3 2 2 5 4 1 7 10 11 15 12 10 13 5 5 9 7 4 3 1 2 4 4 2 3 8 8 5 4 4 6 9 11 9 7 6 8 11 9 10 9 8 9 8 8 8 7 8 7 4 6 8 8 11 13 10 7 8 7 6 6 7 7 6 5 5 5 6 6 6
2 5 7 5 5 9 10 10 10 11 13 12 6 7 11 11 10 6 2 1 2 4 4 1 9 14 15 16 12 9 10 6 5 8 6 4 4 3 4 4 4 4 2 5 3 3 5 6 6 8 9 6 8 8 10 10 8 10 11 11 11 10 10 11 12 12 9 7 11 14 14 16 16 11 9 10 8 7 8 8 6 4 5 6 6 7 8 8
2 3 2 2 1 6 8 8 8 10 13 11 4 7 13 15 13 8 3 4 4 3 3 6 10 11 13 15 12 10 12 10 7 7 5 5 6 4 3 2 1 4 5 5 1 2 4 5 4 7 7 5 6 8 10 9 8 7 10 12 12 12 13 14 15 16 14 13 16 17 15 15 15 10 8 8 8 7 4 3 5 6 7 8 9 9 9 9
2 2 2 1 2 5 8 7 6 7 9 8 5 6 11 15 15 8 3 6 10 6 4 10 13 10 11 13 12 12 16 15 12 9 9 9 7 4 4 4 3 2 4 4 2 1 2 3 3 6 5 4 6 8 8 9 9 7 7 10 11 12 14 16 16 16 12 12 15 13 10 14 13 6 5 7 6 3 3 4 7 9 8 9 9 9 10 11
0 1 2 4 3 5 9 7 5 6 7 7 6 5 8 13 13 9 2 1 8 9 7 12 13 8 7 9 11 14 14 12 14 15 15 15 12 8 4 5 8 7 3 4 4 2 2 2 2 5 4 5 6 8 7 4 4 1 5 9 13 14 14 15 14 12 10 11 13 11 10 14 8 4 5 9 5 6 6 8 8 7 7 10 11 11 11 12
2 2 1 4 3 2 7 8 5 7 8 8 8 6 7 9 9 9 5 3 1 5 7 11 13 8 6 9 11 12 11 10 12 12 11 11 10 6 4 7 13 12 8 6 3 2 5 5 3 5 6 5 4 8 6 6 5 4 11 15 18 16 13 10 9 11 13 13 11 11 14 13 3 5 9 10 6 7 9 9 8 8 8 10 11 12 13 12
Wind_Direction
213 208 205 199 191 190 192 192 191 192 191 190 190 191 192 192 193 193 191 191 192 188 186 186 181 178 176 175 176 174 177 172 150 129 153 180 184 174 164 159 155 166 32 27 17 11 351 338 340 337 325 296 276 268 287 233 165 71 118 172 242 231 209 226 180 174 145 145 169 168 140 128 142 132 142 58 76 98 80 65 56 51 50 78 123 142 148 153
216 209 206 200 191 189 191 192 191 191 191 190 190 191 192 193 193 193 192 192 192 192 189 188 187 183 177 174 173 172 176 170 145 224 201 186 181 176 173 175 171 177 67 43 40 19 351 324 330 335 329 296 283 289 316 289 160 137 166 178 233 220 239 282 161 152 137 146 157 167 155 140 167 165 131 116 124 121 92 58 63 77 68 88 118 137 145 154
219 210 207 201 193 190 191 191 191 191 191 190 190 190 191 193 194 193 193 193 192 192 190 190 189 186 181 173 166 170 166 142 84 256 209 182 178 179 178 186 186 189 121 58 48 6 341 304 311 319 316 299 274 252 8 281 250 185 162 202 250 220 131 349 107 152 149 145 144 168 164 143 179 159 131 146 148 145 138 143 106 115 132 123 129 140 146 156
222 213 207 204 199 194 192 191 192 192 191 190 189 190 190 191 193 193 193 194 192 191 190 190 189 187 184 174 169 165 136 89 284 228 206 187 181 185 181 187 187 186 162 71 94 340 332 303 303 302 287 288 268 152 204 244 255 218 172 191 246 215 107 332 311 134 139 140 143 151 125 130 174 150 143 136 137 195 193 182 170 160 158 149 149 150 153 159
221 217 211 207 200 192 190 190 190 191 191 189 189 188 189 190 191 193 193 194 192 190 189 189 189 186 182 178 171 154 125 71 227 204 210 199 187 187 180 179 176 175 168 140 195 318 332 319 308 296 249 265 254 100 237 232 180 257 227 198 240 204 127 244 275 115 137 132 126 130 126 148 156 143 153 132 146 220 217 202 179 161 160 159 159 157 159 164
216 220 216 208 197 189 188 189 189 191 191 189 188 187 188 188 189 190 192 193 191 189 188 188 189 182 179 175 162 153 147 191 179 175 208 202 192 187 176 176 173 170 164 155 178 312 332 342 331 304 278 283 241 203 245 238 157 217 258 230 303 242 151 206 254 209 135 124 130 145 150 145 119 150 170 137 176 211 210 209 170 158 162 159 156 157 163 171
214 217 217 207 194 189 189 190 190 190 191 189 187 186 187 187 186 188 189 191 190 188 188 188 187 179 171 160 150 158 180 220 180 150 193 194 194 190 176 177 171 164 162 151 149 322 338 348 326 307 301 289 243 212 245 247 164 183 253 277 2 36 132 179 211 108 114 126 153 144 133 137 137 170 159 140 201 200 197 167 144 153 156 152 154 163 171 177
216 214 214 207 193 189 189 190 191 190 190 189 186 184 186 186 184 185 187 187 188 188 187 186 183 176 166 153 141 157 218 208 182 118 171 181 184 182 171 169 167 161 164 162 152 121 359 328 289 282 299 276 245 228 231 239 210 201 233 236 131 70 22 347 78 83 97 116 133 112 117 157 163 157 141 178 197 187 164 114 124 141 148 153 162 169 174 180
218 213 211 208 195 188 189 190 192 190 188 187 185 183 183 184 182 183 184 184 186 187 187 185 180 171 164 154 133 165 205 201 173 104 162 174 173 174 172 167 165 163 166 172 169 137 66 266 257 254 303 293 273 278 232 210 237 214 199 182 164 151 156 160 68 94 103 109 119 109 107 154 188 156 166 200 188 182 142 117 127 138 149 164 168 172 175 180
217 213 208 208 198 189 189 189 190 188 186 185 183 181 180 181 181 181 182 181 183 187 186 183 176 168 163 153 144 185 200 190 188 126 157 174 174 171 174 171 164 165 169 170 172 160 164 230 266 303 310 300 282 289 241 200 226 197 151 120 128 149 180 175 146 141 113 90 125 121 127 169 288 158 236 227 181 160 126 125 141 145 158 172 170 178 178 181
215 212 206 204 198 191 189 188 188 186 183 183 180 179 178 177 179 179 179 179 182 184 183 180 175 171 166 159 174 194 175 179 201 199 157 177 184 176 173 171 162 165 172 165 182 201 208 241 272 304 298 296 315 302 266 241 255 145 121 89 100 137 291 125 140 180 114 85 137 114 113 27 10 161 225 218 170 154 136 142 156 155 166 174 174 182 180 188
213 207 203 200 194 191 191 188 187 185 181 180 179 178 176 175 177 177 176 178 181 182 178 173 170 168 163 176 209 199 167 180 206 209 184 184 190 182 171 166 163 168 172 169 203 221 223 251 272 277 269 296 325 302 288 325 320 149 132 113 136 30 347 165 156 201 120 132 180 120 87 329 286 229 227 190 161 151 142 152 167 169 174 176 177 179 183 191
211 204 201 197 192 192 193 189 185 184 181 178 176 174 173 173 173 175 175 176 179 178 170 164 163 164 163 188 217 170 181 199 212 206 194 179 184 182 173 166 166 172 175 180 204 219 227 259 263 254 264 273 285 283 308 321 231 160 137 126 138 45 290 225 186 176 114 137 201 142 125 260 237 238 230 175 157 140 145 167 178 183 183 181 180 178 188 190
209 203 198 195 192 190 190 190 185 181 178 175 173 171 169 168 168 170 172 173 175 170 162 160 162 166 170 191 169 152 179 201 207 198 186 172 168 172 180 176 171 174 177 186 204 219 252 272 262 249 256 240 255 297 319 315 201 155 134 125 134 151 247 253 193 144 135 246 131 119 176 246 249 257 228 184 168 152 165 186 184 191 196 190 187 182 189 191
207 201 196 193 190 186 185 188 185 179 175 171 168 166 163 162 162 163 167 168 168 165 160 161 160 158 171 250 183 155 160 184 201 196 188 177 164 162 182 185 183 182 182 193 209 226 261 275 259 240 258 260 270 289 308 316 289 147 142 208 177 162 242 286 229 168 154 214 95 115 185 257 264 260 215 180 169 161 171 188 188 193 200 195 193 189 190 196
203 199 196 191 186 184 181 182 184 176 169 165 162 160 157 155 153 153 161 158 156 163 161 156 146 144 170 203 164 159 161 181 198 193 189 185 177 168 171 176 180 180 180 194 210 229 258 268 249 216 248 259 217 192 290 325 301 315 130 188 195 167 210 289 267 234 175 140 148 156 182 251 267 239 204 181 163 160 167 189 198 197 201 196 190 189 190 195
200 197 193 189 185 183 177 177 180 172 164 159 156 152 147 144 142 140 145 144 146 158 156 136 113 122 143 161 156 183 184 182 182 181 181 183 184 173 162 154 162 168 165 178 195 215 244 249 221 202 219 230 207 151 183 274 258 294 74 169 204 167 171 191 268 259 181 157 192 200 200 244 269 235 204 205 171 162 173 197 209 204 204 200 188 188 190 193
197 194 190 187 182 179 174 173 175 168 159 153 147 141 136 134 135 130 126 128 131 140 144 106 122 132 232 203 177 175 179 180 172 172 174 177 183 174 165 159 153 154 150 157 177 193 215 221 203 226 223 215 212 152 167 222 202 205 193 173 198 157 169 188 220 225 171 176 193 179 220 250 265 271 227 229 193 175 191 202 207 201 198 200 194 192 194 196
193 191 186 183 178 174 170 170 169 159 149 144 137 132 126 123 124 122 126 130 127 132 150 207 179 165 207 187 175 148 165 176 166 164 170 173 176 172 165 158 149 144 148 165 181 187 189 209 204 212 224 213 209 173 174 206 186 179 191 176 169 168 207 213 230 257 162 162 200 185 213 238 243 262 248 241 212 192 213 217 213 207 196 198 198 199 200 201
189 186 182 178 174 171 167 165 163 152 145 138 133 128 122 125 120 123 145 152 164 171 131 171 197 297 64 154 155 134 150 166 159 163 173 171 165 164 159 144 148 153 156 159 175 184 172 195 215 209 213 214 211 185 177 212 218 182 173 185 194 179 232 264 282 307 86 144 220 205 217 246 239 244 247 234 208 208 227 228 225 221 202 198 199 203 205 206
185 181 179 174 171 169 163 159 158 154 148 142 139 136 144 152 146 162 163 152 184 233 134 167 191 293 61 153 149 136 135 155 159 174 175 169 160 161 170 150 152 172 171 160 158 169 178 200 215 208 203 205 209 195 187 220 237 219 189 190 216 195 210 264 262 312 4 139 242 241 227 256 247 240 253 225 195 214 218 212 222 222 213 206 200 207 209 209
181 178 174 171 169 167 160 154 156 155 149 147 149 148 152 149 100 140 140 97 179 261 15 161 181 295 28 149 154 143 131 150 161 181 176 168 166 168 173 158 159 172 175 168 157 168 196 212 212 206 204 207 212 203 200 222 224 214 202 182 211 212 174 286 313 337 13 130 258 322 220 253 256 247 254 222 200 217 212 204 210 209 210 214 206 210 209 205
179 174 170 170 168 165 159 154 154 154 152 156 161 144 137 136 124 131 125 73 162 235 9 155 191 269 113 145 171 158 150 164 165 186 181 169 175 179 162 158 167 170 170 180 174 172 197 214 207 203 204 212 226 216 205 218 223 187 171 171 209 208 154 225 284 334 16 115 181 45 314 269 271 267 263 234 209 218 217 212 215 206 203 209 209 207 198 197
175 171 170 168 164 161 158 153 154 157 161 165 160 137 130 131 136 135 121 71 150 212 200 190 208 227 163 159 192 185 166 162 159 179 183 172 166 171 164 159 164 172 178 181 173 174 200 196 189 194 207 212 219 229 204 191 231 245 162 159 179 188 172 166 172 96 13 9 87 71 0 298 258 244 256 247 220 224 223 216 225 228 219 218 218 211 202 199
171 170 168 165 162 160 155 152 157 162 165 165 155 144 136 134 141 138 121 92 143 210 171 185 208 225 190 171 197 198 147 96 143 172 179 178 164 149 165 168 164 178 183 177 166 176 211 185 170 193 212 208 200 214 202 171 192 279 230 185 173 171 155 119 121 93 47 329 295 108 6 292 282 247 245 249 238 235 223 209 221 229 228 228 224 218 215 211
169 168 165 162 159 155 151 153 165 161 159 169 162 155 147 145 149 141 107 84 171 170 148 165 183 193 184 180 205 167 126 146 324 155 169 182 183 150 165 174 140 177 177 172 168 177 203 157 160 192 196 195 188 193 203 168 150 235 260 207 144 138 128 131 138 110 124 233 288 99 165 256 315 298 253 244 225 236 233 221 228 226 220 220 214 213 211 205
168 165 161 159 157 155 155 159 162 158 163 175 161 155 153 156 163 151 79 84 194 161 147 153 166 178 178 191 196 157 157 182 95 145 177 181 198 115 162 173 135 172 168 142 177 206 163 152 169 185 174 183 183 191 210 157 136 217 241 121 123 129 140 154 143 123 179 199 335 19 131 222 291 277 271 253 198 244 252 235 239 232 222 219 212 211 207 200
164 161 158 159 161 162 162 156 158 165 173 166 155 152 156 161 165 126 94 163 188 136 145 153 164 170 165 175 195 178 185 159 124 184 200 175 188 48 117 181 156 160 162 145 184 248 134 162 180 172 154 177 186 214 211 142 130 231 197 130 136 142 146 148 126 110 107 115 304 307 105 186 267 272 299 325 171 251 251 233 237 230 223 219 216 218 213 208
159 159 160 160 162 163 160 159 163 164 159 159 154 150 152 152 140 76 138 184 141 122 147 142 154 162 141 145 202 251 150 146 129 170 166 167 214 42 125 182 139 124 57 113 167 226 216 184 183 161 159 190 187 222 211 148 151 208 141 101 81 79 94 103 110 107 64 82 236 261 210 174 272 280 299 330 223 245 243 240 241 232 229 223 215 209 188 170
158 160 160 159 160 157 152 159 161 149 152 156 150 141 137 132 122 130 192 189 126 132 151 142 167 169 155 159 187 187 148 113 75 128 132 167 219 5 120 128 101 106 41 44 103 248 295 291 241 147 161 178 153 130 171 150 148 130 92 69 51 32 39 49 61 92 83 278 249 248 212 163 274 281 244 222 224 219 220 246 255 237 223 209 196 180 165 153
159 159 160 159 160 155 148 153 157 153 155 154 142 132 127 119 160 172 179 164 119 134 151 146 159 161 163 165 166 169 144 74 123 143 156 175 139 21 146 114 88 99 75 56 44 348 357 6 317 319 171 145 112 76 19 46 113 100 89 95 75 10 13 21 359 44 132 252 260 258 213 156 221 263 249 248 261 231 205 224 237 221 199 188 178 172 171 167
158 159 160 159 158 156 152 152 157 156 155 151 141 132 134 142 216 192 160 143 147 175 170 158 160 164 169 164 153 152 131 108 162 160 160 163 170 185 171 166 161 130 149 161 90 17 4 337 304 331 300 155 119 99 31 13 48 80 110 119 105 31 21 18 299 318 214 244 265 285 284 190 230 254 262 270 275 257 223 218 212 196 190 188 179 174 170 164
158 158 158 157 153 152 147 146 153 155 153 148 140 138 153 162 184 179 150 165 174 172 167 164 166 165 161 155 152 150 119 128 175 166 154 144 161 194 210 196 168 145 165 170 125 97 350 308 304 348 308 217 143 144 145 178 128 125 144 138 133 127 82 215 253 285 248 255 279 295 288 254 267 268 251 251 257 249 227 228 208 182 181 185 182 173 161 158
156 156 153 150 148 147 146 149 156 156 151 146 142 155 164 173 176 147 154 184 162 150 159 158 153 153 155 155 165 159 111 109 169 155 149 144 159 195 219 217 183 139 121 150 160 162 163 250 257 180 250 250 170 176 158 154 156 170 164 139 150 157 143 190 213 199 222 261 292 300 280 190 202 259 245 245 270 276 210 229 188 164 174 165 161 160 153 155
155 152 143 138 138 145 153 155 158 156 151 146 154 164 169 174 173 154 163 169 136 140 145 142 142 145 154 149 160 168 129 128 171 152 160 173 179 188 188 199 193 151 133 164 186 155 154 203 281 280 285 174 182 255 103 123 147 213 147 118 164 179 147 153 182 177 172 165 271 249 240 209 203 273 275 262 321 8 53 43 114 136 155 139 150 170 167 167
150 143 132 132 132 146 159 160 157 156 156 154 158 177 186 175 173 164 160 154 150 147 137 139 147 148 153 137 158 182 150 127 161 160 182 188 187 192 185 189 189 168 156 164 165 132 150 213 319 338 345 10 186 258 18 123 170 178 131 163 207 169 121 122 193 171 108 146 245 206 243 289 307 289 292 268 198 283 303 284 163 169 173 158 177 194 186 181
143 137 127 129 135 151 162 163 158 157 162 168 166 179 185 185 176 145 141 142 142 143 138 144 165 159 159 155 168 181 157 129 165 171 177 177 191 198 193 199 191 178 173 160 166 191 153 137 324 357 144 292 242 151 34 34 133 122 159 202 194 116 98 114 160 11 59 194 266 217 215 275 287 265 318 12 216 256 259 240 231 224 205 194 205 205 195 186
135 132 121 127 144 155 163 163 158 156 168 182 179 179 167 189 182 131 127 133 136 145 147 151 168 171 170 165 170 175 160 156 177 173 167 181 217 195 183 197 196 182 186 157 147 190 134 116 313 334 185 270 336 101 90 354 70 135 182 189 126 141 208 139 154 185 172 216 274 283 237 247 209 221 297 272 222 239 239 225 227 227 211 205 210 204 195 178
130 128 112 138 148 154 161 160 155 152 179 185 187 188 162 170 198 142 137 140 145 154 157 159 161 167 177 165 158 167 168 169 169 167 178 185 228 205 181 187 188 180 185 158 151 188 132 129 220 298 278 260 1 102 178 198 339 35 65 92 90 148 178 173 171 160 156 203 249 293 310 257 231 217 208 216 220 221 220 214 218 221 209 201 200 191 187 179
132 125 123 148 148 151 156 154 146 165 194 189 185 193 170 168 199 153 149 148 151 160 163 167 162 157 167 161 154 164 170 161 162 175 202 174 195 222 188 181 173 173 170 131 143 177 128 122 167 298 324 181 186 229 187 176 173 135 130 160 184 152 128 159 207 137 129 166 204 232 278 264 251 214 202 220 227 219 212 206 216 223 210 203 199 186 184 182
128 114 132 151 148 149 150 145 161 185 195 188 178 183 175 159 97 139 158 153 150 155 150 161 164 157 154 156 161 167 158 150 167 177 188 177 184 215 196 178 159 157 157 134 161 172 131 113 136 148 212 192 232 260 213 195 187 168 175 183 185 170 125 143 239 224 146 167 178 176 237 268 258 213 214 230 229 229 222 206 214 223 208 204 200 190 188 183
122 117 143 152 152 153 151 157 190 185 191 187 175 142 153 145 115 143 162 154 151 120 115 151 163 156 155 160 163 165 157 156 175 179 181 190 186 193 198 172 155 160 165 163 181 164 117 101 111 133 198 212 259 273 260 256 203 145 200 191 172 163 133 151 207 228 207 207 160 141 226 268 262 228 231 242 236 251 248 213 215 225 208 199 195 189 188 177
126 113 134 149 156 160 158 172 182 181 212 198 170 87 137 136 131 145 159 157 157 149 135 153 162 158 164 163 155 160 163 161 184 186 171 170 184 201 197 168 157 162 164 157 173 158 108 102 107 86 313 303 307 312 315 305 107 152 234 190 156 176 157 159 179 170 173 198 164 163 247 266 273 261 252 260 265 282 279 220 202 208 205 195 188 183 178 163
120 99 117 151 163 171 175 180 178 178 194 179 127 118 122 106 134 150 161 162 159 151 149 154 163 161 159 154 156 168 170 166 193 193 160 148 185 252 179 169 160 162 174 180 178 171 138 133 123 108 80 359 338 321 293 254 190 207 236 185 145 135 123 138 148 120 190 215 171 174 237 252 268 295 305 301 312 317 297 259 199 190 195 192 184 177 172 160
124 97 67 152 170 185 204 195 181 175 176 157 137 153 145 90 112 142 150 157 149 134 143 156 156 137 120 139 149 167 172 162 168 183 158 142 175 353 355 181 171 170 188 179 163 156 148 160 147 136 154 181 194 210 211 183 181 224 209 165 164 158 154 165 160 151 229 238 164 173 235 251 275 316 328 317 313 298 279 275 261 223 200 190 183 177 171 164
139 131 124 143 185 217 242 271 192 177 174 155 143 162 147 127 45 18 119 149 188 120 119 145 141 115 124 147 143 165 184 164 107 164 161 142 164 326 285 176 167 169 167 148 148 134 119 175 182 168 183 190 178 176 149 133 147 199 198 175 180 189 174 158 145 181 206 221 200 216 241 255 263 273 290 292 272 256 262 267 266 249 217 199 189 176 168 162
144 161 159 151 171 203 227 258 218 191 180 168 163 170 154 143 151 78 84 150 192 129 85 75 153 147 156 157 149 169 181 154 115 156 151 129 154 358 46 90 82 60 126 144 152 126 117 203 204 187 201 189 145 147 153 144 160 191 192 186 190 192 171 165 198 211 190 193 239 240 233 246 253 239 230 249 247 241 247 239 236 230 207 196 177 161 161 160
149 174 183 157 151 185 200 203 199 193 180 172 163 154 151 151 159 166 137 80 160 142 88 106 177 171 164 158 153 160 165 146 142 157 138 119 141 88 34 50 45 2 70 127 139 105 137 203 207 192 209 189 139 150 160 156 170 183 188 193 194 188 177 186 213 217 190 192 232 233 222 233 248 235 216 225 223 221 231 224 208 181 173 176 170 169 174 173
112 128 197 344 30 171 163 155 169 180 176 168 153 153 159 162 166 166 127 110 155 188 133 155 183 178 161 156 148 151 167 167 167 173 155 137 143 122 88 97 47 11 69 113 123 87 153 203 193 175 199 201 168 170 168 165 173 180 191 196 191 187 190 199 215 219 210 211 228 234 232 241 248 235 216 224 221 220 228 169 152 175 187 183 180 183 186 187
111 126 162 86 73 127 119 112 132 163 175 167 157 167 167 165 165 161 133 151 167 188 175 167 177 173 158 157 151 165 184 176 160 167 156 140 153 162 148 165 171 69 71 122 149 68 173 205 161 146 175 218 205 190 178 172 178 190 204 203 193 192 199 208 217 220 217 225 240 250 258 260 254 216 203 238 227 180 141 158 191 205 194 179 184 193 195 197
65 261 160 129 112 126 138 142 141 150 171 179 178 179 173 174 170 154 124 183 168 174 179 165 161 150 143 159 166 176 185 166 152 163 160 154 166 176 167 170 159 142 132 153 151 135 154 171 111 121 166 229 214 186 172 127 107 182 231 216 201 196 202 210 214 214 207 219 240 251 251 255 248 143 205 239 200 160 194 209 219 223 193 181 190 197 201 204
16 338 30 108 95 117 151 149 151 166 178 184 182 176 168 172 167 147 135 356 36 153 155 147 145 139 147 176 190 184 170 152 151 159 153 145 148 138 127 152 156 155 157 153 148 145 143 146 138 140 176 238 212 163 144 67 55 248 235 216 204 200 204 210 218 222 210 205 218 229 237 246 207 141 235 242 178 177 219 217 217 225 208 197 199 200 205 208